Regional Weather Roundup
Issued by NWS

Home | Current Version | Previous Version | Text Only | Print | Product List | Glossary On
Versions: 1 2 3 4 5 6 7 8 9 10 11 12 13 14 15 16 17 18 19 20 21 22 23 24 25 26 27 28 29 30 31 32 33 34 35 36 37 38 39 40 41 42 43 44 45 46 47 48 49 50
000
ASUS43 KOAX 060102
RWRNE

WEATHER ROUNDUP FOR NEBRASKA
NATIONAL WEATHER SERVICE OMAHA NE
800 PM CDT TUE MAY 05 2015

NOTES: SATELLITE DATA IS BEING USED TO AUGMENT CLOUD COVER ABOVE
       12000 FEET.
       "FAIR" INDICATES FEW OR NO CLOUDS BELOW 12,000 FEET WITH NO
       SIGNIFICANT WEATHER AND/OR OBSTRUCTIONS TO VISIBILITY.

  * THESE STATIONS DO NOT REPORT WEATHER SUCH AS RAIN...SNOW OR FOG.

NEZ001>004-019>022-054>056-060200-
NEBRASKA PANHANDLE

CITY           SKY/WX    TMP DP  RH WIND       PRES   REMARKS
SCOTTSBLUFF    LGT RAIN  55  53  93 SE15G25   29.84F
ALLIANCE       LGT RAIN  54  53  97 MISG      29.86F FOG
CHADRON        CLOUDY    60  51  72 SE14      29.84F
KIMBALL        RAIN      51  51  98 E9        29.83F
SIDNEY         LGT RAIN  52  50  93 E17G31    29.84F FOG
$$

NEZ057>060-069>072-079>082-060200-
SOUTHWEST NEBRASKA

CITY           SKY/WX    TMP DP  RH WIND       PRES   REMARKS
NORTH PLATTE   CLOUDY    61  57  87 SE7       29.87F
IMPERIAL       LGT RAIN  56  52  86 SE24G39   29.83F
LEXINGTON      DRIZZLE   60  55  83 SE15G24   29.90S
MCCOOK         CLOUDY    58  54  86 SE10      29.85F
$$

NEZ005>010-023>029-035>040-094-060200-
NORTH CENTRAL NEBRASKA

CITY           SKY/WX    TMP DP  RH WIND       PRES   REMARKS
VALENTINE      RAIN      57  54  89 S17       29.92R
AINSWORTH      CLOUDY    57  57  98 W3        29.91F
BROKEN BOW     CLOUDY    67  53  61 SE15G22   29.89S
ORD            CLOUDY    70  49  47 SE14G22   29.89S
$$

NEZ041-046>049-061>064-073>077-083>087-060200-
SOUTH CENTRAL NEBRASKA

CITY           SKY/WX    TMP DP  RH WIND       PRES   REMARKS
GRAND ISLAND   CLOUDY    69  51  52 SE12      29.92S
AURORA         CLOUDY    70  52  52 SE9       29.92S
HASTINGS       LGT RAIN  68  53  58 SE9       29.90F
KEARNEY *      CLOUDY    63  54  72 S14       29.91S
$$

NEZ011>018-030>034-042>045-060200-
NORTHEAST NEBRASKA

CITY           SKY/WX    TMP DP  RH WIND       PRES   REMARKS
NORFOLK        CLOUDY    70  59  68 SE9       29.94S
COLUMBUS *     CLOUDY    70  55  60 SE8       29.95F
TEKAMAH        CLOUDY    72  60  66 SE10      29.96F
$$

NEZ050>053-065>068-078-088>093-060200-
SOUTHEAST NEBRASKA

CITY           SKY/WX    TMP DP  RH WIND       PRES   REMARKS
LINCOLN        CLOUDY    73  54  51 SE12      29.94F
OMAHA EPPLEY   CLOUDY    73  59  61 SE10      29.97S
FALLS CITY     MOCLDY    72  58  61 SE9       29.96S
NEBRASKA CITY  CLOUDY    71  51  47 SE7       29.97S
PLATTSMOUTH    CLOUDY    72  57  59 SE8       29.97S
$$

NEZ044-045-051>053-067-060200-
OMAHA AREA

CITY           SKY/WX    TMP DP  RH WIND       PRES   REMARKS
OMAHA EPPLEY   CLOUDY    73  59  61 SE10      29.97S
PLATTSMOUTH    CLOUDY    72  57  59 SE8       29.97S
$$



USA.gov is the U.S. government's official web portal to all federal, state and local government web resources and services.